Location: Prescott
(34.5400°N, 112.4680°W)
Time: 10:18:08
(UTC-07:00)

Amateur Radio Satellites - All Passes

Search period start: 26 September 2016 09:48
Search period end: 27 September 2016 09:48
Location: Prescott, 34.5400°N, 112.4680°W

Satellite Date Start Highest point End Downlink Frequencies (MHz)
Time Altitude Azimuth
HO-68 26 Sep 09:52:27 09:58:09 27° 297° (WNW) 10:03:51 435.675
JAS-2 26 Sep 09:55:26 09:56:58 11° 55° (NE) 09:58:32 435.910
TIGRISAT 26 Sep 09:56:40 10:00:55 66° 76° (ENE) 10:05:08 435.000
HUMSAT D 26 Sep 10:04:11 10:07:52 28° 97° (E) 10:11:36 437.325/437.525
BEESAT 3 26 Sep 10:08:11 10:12:01 46° 58° (ENE) 10:15:51 437.485
CUBEBUG 2 26 Sep 10:09:31 10:12:15 17° 291° (WNW) 10:15:00 437.445
DELFI C3 26 Sep 10:10:07 10:14:08 76° 100° (E) 10:18:08 145.870
AAUSAT CUBESAT 2 26 Sep 10:11:20 10:13:39 15° 292° (WNW) 10:15:59 437.432
GONETS M04 26 Sep 10:16:31 10:23:45 28° 288° (WNW) 10:31:04
FUNcube-1 26 Sep 10:22:58 10:26:44 30° 288° (WNW) 10:30:35 145.935
UWE-3 26 Sep 10:31:45 10:34:08 15° 292° (WNW) 10:36:34 435.000/436.395/437.385
QB50P1 26 Sep 10:37:03 10:40:23 23° 70° (ENE) 10:43:43 145.935-145.965
UNISAT 6 26 Sep 10:37:04 10:41:01 36° 262° (W) 10:44:57 437.425
DUCHIFAT 1 26 Sep 10:37:13 10:40:16 20° 69° (ENE) 10:43:20 145.980
BUGSAT 1 26 Sep 10:49:48 10:50:08 10° 66° (ENE) 10:50:29 437.445
POPSAT HIP 1 26 Sep 10:49:56 10:53:40 32° 72° (ENE) 10:57:25 437.405
BEESAT 2 26 Sep 10:59:54 11:03:56 90° 242° (WSW) 11:07:56 435.950
PHONESAT 2.4 26 Sep 11:00:09 11:03:03 72° 154° (SSE) 11:06:00 2401.200-2431.200
NANOSAT C BR1 26 Sep 11:07:08 11:11:11 50° 75° (ENE) 11:15:15 145.865
ANTELSAT 26 Sep 11:14:29 11:16:44 14° 266° (W) 11:18:59 437.575/2403.000
AISAT 26 Sep 11:16:32 11:18:28 13° 93° (E) 11:20:23 437.250
QB50P2 26 Sep 11:28:44 11:32:56 74° 258° (WSW) 11:37:09 145.880/145.840
POLYITAN 1 26 Sep 11:30:59 11:35:10 74° 258° (WSW) 11:39:22 437.675
JAS-2 26 Sep 11:34:19 11:40:30 73° 74° (ENE) 11:47:33 435.910
HUMSAT D 26 Sep 11:40:12 11:43:17 20° 290° (WNW) 11:46:22 437.325/437.525
BEESAT 3 26 Sep 11:48:00 11:49:13 11° 252° (WSW) 11:50:26 437.485
ESTCUBE 1 26 Sep 11:51:33 11:56:06 73° 102° (ESE) 12:00:36 437.505/2401.250
DX 1 26 Sep 11:56:41 12:00:03 22° 96° (E) 12:03:23 434.975-435.025
VELOX 1 26 Sep 11:58:27 12:02:33 38° 99° (E) 12:06:38 145.980
CUBEBUG 1 26 Sep 12:06:58 12:11:18 68° 102° (ESE) 12:15:34 437.445
50 SAT 26 Sep 12:10:08 12:13:44 53° 101° (E) 12:17:17 437.505
DUCHIFAT 1 26 Sep 12:12:14 12:15:46 27° 263° (W) 12:19:19 145.980
QB50P1 26 Sep 12:12:40 12:16:03 23° 264° (W) 12:19:25 145.935-145.965
YUBILEINY 26 Sep 12:19:29 12:20:56 10° 62° (ENE) 12:22:22 435.215
BUGSAT 1 26 Sep 12:20:58 12:25:01 54° 260° (W) 12:29:02 437.445
POPSAT HIP 1 26 Sep 12:26:48 12:29:29 17° 265° (W) 12:32:12 437.405
Oscar 19 26 Sep 12:33:41 12:38:21 35° 70° (ENE) 12:43:02 437.125/150
PCSat 26 Sep 12:34:57 12:37:17 13° 47° (NE) 12:39:36 145.827
AUBIESAT-1 26 Sep 12:36:19 12:39:30 46° 105° (ESE) 12:42:44 437.475
PHONESAT 2.4 26 Sep 12:36:42 12:39:21 29° 350° (N) 12:42:00 2401.200-2431.200
NANOSAT C BR1 26 Sep 12:46:29 12:47:09 10° 268° (W) 12:47:49 145.865
TISAT 1 26 Sep 12:48:24 12:50:18 13° 93° (E) 12:52:12 437.305
AISAT 26 Sep 12:50:56 12:55:08 45° 287° (WNW) 12:59:18 437.250
SPROUT 26 Sep 12:55:44 13:00:00 79° 282° (WNW) 13:04:14 437.525
UKube-1 26 Sep 13:06:31 13:10:49 70° 284° (WNW) 13:15:04 .
AIST 2 26 Sep 13:07:48 13:12:01 71° 61° (ENE) 13:16:11 435.215
M-CUBED/EXP-1 PRIME 26 Sep 13:12:27 13:15:26 34° 291° (WNW) 13:18:25 437.505
Gurwin Techsat 1B 26 Sep 13:18:01 13:23:01 44° 72° (ENE) 13:28:02 435.225
JAS-2 26 Sep 13:22:52 13:26:21 15° 272° (W) 13:30:03 435.910
ITAMSAT 1 26 Sep 13:25:52 13:28:15 13° 63° (ENE) 13:30:39 435.822/435.867
DX 1 26 Sep 13:32:33 13:36:10 26° 290° (WNW) 13:39:46 434.975-435.025
VELOX 1 26 Sep 13:36:00 13:38:40 16° 293° (WNW) 13:41:19 145.980
ITUPSAT 1 26 Sep 13:54:46 13:57:17 14° 93° (E) 13:59:49 437.325
Cosmos 2491 26 Sep 14:01:37 14:09:20 36° 86° (E) 14:17:04 435.465 / 435.565
AO-7 26 Sep 14:04:39 14:11:31 30° 61° (ENE) 14:18:21 29.400- 29.500
SWISSCUBE 26 Sep 14:07:40 14:11:28 23° 96° (E) 14:15:15 437.505
Cosmos 2504 26 Sep 14:09:12 14:14:57 23° 73° (ENE) 14:20:57 435.465 / 435.565
YUBILEINY 26 Sep 14:10:39 14:19:21 70° 82° (E) 14:27:59 435.215
PHONESAT 2.4 26 Sep 14:13:23 14:15:57 26° 7° (N) 14:18:31 2401.200-2431.200
Oscar 19 26 Sep 14:13:35 14:17:40 23° 264° (W) 14:21:48 437.125/150
PCSat 26 Sep 14:15:56 14:21:23 88° 246° (WSW) 14:26:48 145.827
BEESAT 26 Sep 14:20:34 14:24:41 28° 97° (E) 14:28:47 436.000
TISAT 1 26 Sep 14:22:11 14:26:05 40° 287° (WNW) 14:29:59 437.305
Gurwin Techsat 1B 26 Sep 14:59:25 15:03:07 19° 266° (W) 15:06:48 435.225
ITAMSAT 1 26 Sep 15:02:00 15:07:07 65° 258° (WSW) 15:12:16 435.822/435.867
SO-50 26 Sep 15:10:49 15:15:40 80° 117° (ESE) 15:20:29 436.795
AIST 1 26 Sep 15:20:28 15:20:51 10° 72° (ENE) 15:21:13
ITUPSAT 1 26 Sep 15:30:42 15:35:21 49° 287° (WNW) 15:39:58 437.325
SWISSCUBE 26 Sep 15:45:01 15:49:13 31° 290° (WNW) 15:53:24 437.505
PHONESAT 2.4 26 Sep 15:49:23 15:52:21 75° 21° (NNE) 15:55:19 2401.200-2431.200
AO-7 26 Sep 15:55:39 16:03:47 56° 257° (WSW) 16:11:55 29.400- 29.500
Cosmos 2491 26 Sep 15:57:43 16:05:54 43° 283° (WNW) 16:14:12 435.465 / 435.565
BEESAT 26 Sep 15:58:25 16:02:19 25° 291° (WNW) 16:06:12 436.000
MOZHAYETS 4 26 Sep 16:00:06 16:04:42 57° 100° (E) 16:09:15
Cosmos 2504 26 Sep 16:01:20 16:08:35 56° 268° (W) 16:16:21 435.465 / 435.565
YUBILEINY 26 Sep 16:09:21 16:15:12 20° 279° (W) 16:21:04 435.215
BRITE-PL 26 Sep 16:20:56 16:25:17 23° 68° (ENE) 16:29:38 437.365/2234.400
KKS-1 26 Sep 16:36:22 16:40:49 90° 279° (W) 16:45:14 437.445
NOAA 15 26 Sep 16:41:21 16:44:33 16° 64° (ENE) 16:47:46 137.62
HORYU 2 26 Sep 16:51:02 16:55:25 77° 76° (ENE) 16:59:50 437.375
Cubesat XI-IV 26 Sep 16:52:10 16:55:23 16° 65° (ENE) 16:58:36 437.490
CUTE-I 26 Sep 16:52:44 16:56:01 17° 65° (ENE) 16:59:18 437.470
SO-50 26 Sep 16:54:33 16:56:41 13° 314° (NW) 16:58:50 436.795
AIST 1 26 Sep 16:54:36 16:58:45 51° 267° (W) 17:02:52
LilacSat-2 26 Sep 16:55:19 16:55:54 10° 67° (ENE) 16:56:29 437.200
O/OREOS (USA 219) 26 Sep 16:59:46 17:04:04 38° 66° (ENE) 17:08:19 437.305
STARS 26 Sep 17:14:08 17:18:29 71° 285° (WNW) 17:22:49 437.465
CUBESAT XI-V 26 Sep 17:15:55 17:20:26 46° 99° (E) 17:24:54 437.345
NOAA 18 26 Sep 17:20:11 17:24:40 26° 67° (ENE) 17:29:07 137.9125
PHONESAT 2.4 26 Sep 17:26:21 17:28:13 15° 216° (SW) 17:30:04 2401.200-2431.200
MOZHAYETS 4 26 Sep 17:39:25 17:41:19 12° 295° (WNW) 17:43:13
RS-15 26 Sep 17:46:21 17:51:47 15° 96° (E) 17:57:18 29.354- 29.394
GOMX 1 26 Sep 17:54:38 18:00:06 80° 77° (ENE) 18:05:22 467.674
BRITE-PL 26 Sep 17:58:01 18:03:23 44° 262° (W) 18:08:47 437.365/2234.400
CUSAT 1 26 Sep 18:02:20 18:06:44 22° 82° (E) 18:11:48 437.405
CINEMA 3 26 Sep 18:12:53 18:14:02 11° 67° (ENE) 18:15:11 145.822/145.860
NOAA 15 26 Sep 18:18:38 18:23:49 55° 260° (W) 18:29:03 137.62
DOVE 4 26 Sep 18:23:39 18:28:44 68° 76° (ENE) 18:33:35 437.250
LilacSat-2 26 Sep 18:26:11 18:29:45 42° 261° (W) 18:33:21 437.200
HO-68 26 Sep 18:29:34 18:35:22 28° 63° (ENE) 18:41:10 435.675
Cubesat XI-IV 26 Sep 18:29:47 18:34:57 55° 259° (W) 18:40:10 437.490
CUTE-I 26 Sep 18:30:25 18:35:34 53° 260° (W) 18:40:47 437.470
GONETS M04 26 Sep 18:33:55 18:40:28 23° 70° (ENE) 18:46:56
O/OREOS (USA 219) 26 Sep 18:40:13 18:43:06 17° 261° (W) 18:45:57 437.305
CUTE 1.7 + AOD 2 26 Sep 18:51:14 18:54:22 20° 70° (ENE) 18:57:31 437.475
CANX-2 26 Sep 18:51:53 18:55:17 24° 71° (ENE) 18:58:43 2200.000
CUBESAT XI-V 26 Sep 18:54:41 18:57:23 15° 293° (WNW) 19:00:04 437.345
SEEDS 26 Sep 18:55:56 18:58:27 16° 68° (ENE) 19:01:00 437.485
NOAA 18 26 Sep 19:00:09 19:05:06 35° 262° (W) 19:10:04 137.9125
Cosmos 2499 26 Sep 19:15:59 19:22:50 35° 77° (ENE) 19:30:07 435.465 / 435.565
DANDE 26 Sep 19:19:24 19:23:34 32° 87° (E) 19:28:56 436.750
ISS 26 Sep 19:19:51 19:22:23 21° 130° (SE) 19:24:55 145.825
STRAND 1 26 Sep 19:22:20 19:27:14 42° 99° (E) 19:32:05 437.568
AAUSAT CUBESAT 2 26 Sep 19:22:23 19:25:00 17° 69° (ENE) 19:27:39 437.432
CUBEBUG 2 26 Sep 19:27:37 19:30:35 19° 70° (ENE) 19:33:31 437.445
GOMX 1 26 Sep 19:37:47 19:38:32 10° 269° (W) 19:39:18 467.674
CUSAT 1 26 Sep 19:42:16 19:47:55 53° 284° (WNW) 19:55:01 437.405
CINEMA 3 26 Sep 19:46:11 19:50:42 58° 260° (W) 19:55:02 145.822/145.860
UWE-3 26 Sep 19:48:22 19:51:29 21° 70° (ENE) 19:54:36 435.000/436.395/437.385
RS-15 26 Sep 19:50:37 20:02:02 78° 115° (ESE) 20:14:09 29.354- 29.394
COMPASS 1 26 Sep 20:03:34 20:07:41 70° 77° (ENE) 20:11:52 437.405
DOVE 4 26 Sep 20:05:24 20:06:41 11° 268° (W) 20:07:57 437.250
HO-68 26 Sep 20:15:46 20:22:40 51° 259° (W) 20:29:37 435.675
ZACube-1 26 Sep 20:20:09 20:23:45 30° 72° (ENE) 20:27:23 437.345
Oscar 11 26 Sep 20:20:29 20:24:15 30° 72° (ENE) 20:28:02 145.826/435.025
CUTE 1.7 + AOD 2 26 Sep 20:26:26 20:30:01 27° 264° (W) 20:33:36 437.475
CANX-2 26 Sep 20:27:43 20:31:02 22° 265° (W) 20:34:23 2200.000
GONETS M04 26 Sep 20:29:14 20:37:56 68° 268° (W) 20:46:33
SEEDS 26 Sep 20:30:00 20:33:50 35° 263° (W) 20:37:42 437.485
JUGNU 26 Sep 20:36:42 20:40:06 16° 170° (S) 20:43:29 437.505
AO-85 26 Sep 20:51:09 20:56:26 74° 117° (ESE) 21:01:26 145.980
PRISM 26 Sep 20:52:32 20:56:14 32° 98° (E) 20:59:55 437.425
DELFI C3 26 Sep 20:52:42 20:56:01 26° 71° (ENE) 20:59:22 145.870
HUMSAT D 26 Sep 20:53:48 20:55:35 13° 67° (ENE) 20:57:21 437.325/437.525
ISS 26 Sep 20:55:52 20:58:44 28° 324° (NW) 21:01:38 145.825
AAUSAT CUBESAT 2 26 Sep 20:56:26 21:00:11 32° 263° (W) 21:03:57 437.432
DANDE 26 Sep 21:02:24 21:06:25 25° 292° (WNW) 21:11:26 436.750
STRAND 1 26 Sep 21:02:25 21:06:02 20° 294° (WNW) 21:09:39 437.568
CUBEBUG 2 26 Sep 21:03:20 21:07:00 28° 263° (W) 21:10:38 437.445
Cosmos 2499 26 Sep 21:08:55 21:15:51 39° 271° (W) 21:23:16 435.465 / 435.565
FUNcube-1 26 Sep 21:14:26 21:18:31 59° 260° (W) 21:22:37 145.935
UWE-3 26 Sep 21:24:20 21:27:48 25° 264° (W) 21:31:14 435.000/436.395/437.385
ANTELSAT 26 Sep 21:33:10 21:34:17 11° 92° (E) 21:35:24 437.575/2403.000
TIGRISAT 26 Sep 21:52:18 21:55:20 18° 95° (E) 21:58:24 435.000
ZACube-1 26 Sep 21:57:22 22:00:04 17° 266° (W) 22:02:47 437.345
Oscar 11 26 Sep 21:57:24 22:00:23 18° 266° (W) 22:03:23 145.826/435.025
RS-15 26 Sep 22:05:45 22:15:48 32° 318° (NW) 22:26:19 29.354- 29.394
JUGNU 26 Sep 22:24:23 22:28:24 19° 181° (S) 22:32:24 437.505
HUMSAT D 26 Sep 22:26:56 22:30:47 41° 261° (W) 22:34:40 437.325/437.525
DELFI C3 26 Sep 22:27:59 22:30:49 18° 265° (W) 22:33:39 145.870
PRISM 26 Sep 22:28:38 22:31:15 17° 292° (WNW) 22:33:52 437.425
UNISAT 6 26 Sep 22:31:25 22:35:46 56° 101° (E) 22:40:12 437.425
AO-85 26 Sep 22:34:29 22:37:19 15° 312° (NW) 22:40:05 145.980
50 SAT 26 Sep 22:44:50 22:46:45 14° 69° (ENE) 22:48:39 437.505
ESTCUBE 1 26 Sep 22:47:27 22:51:42 42° 73° (ENE) 22:55:59 437.505/2401.250
JAS-2 26 Sep 22:50:08 22:54:07 15° 88° (E) 22:58:00 435.910
DX 1 26 Sep 22:50:09 22:52:12 13° 66° (ENE) 22:54:14 434.975-435.025
VELOX 1 26 Sep 22:52:39 22:56:09 23° 69° (ENE) 22:59:40 145.980
NANOSAT C BR1 26 Sep 22:57:54 22:58:30 10° 92° (E) 22:59:05 145.865
CUBEBUG 1 26 Sep 22:59:21 23:03:22 35° 72° (ENE) 23:07:24 437.445
ANTELSAT 26 Sep 23:06:55 23:11:14 55° 285° (WNW) 23:15:38 437.575/2403.000
QB50P2 26 Sep 23:17:42 23:21:02 22° 96° (E) 23:24:21 145.880/145.840
AUBIESAT-1 26 Sep 23:18:34 23:22:23 36° 69° (ENE) 23:25:58 437.475
SRMSAT 26 Sep 23:18:55 23:22:32 17° 172° (S) 23:26:09 437.500
POLYITAN 1 26 Sep 23:19:55 23:23:15 22° 96° (E) 23:26:35 437.675
TIGRISAT 26 Sep 23:28:05 23:32:02 33° 288° (WNW) 23:36:03 435.000
AISAT 26 Sep 23:44:07 23:48:35 83° 257° (WSW) 23:53:04 437.250
SPROUT 26 Sep 23:45:30 23:49:36 47° 74° (ENE) 23:53:42 437.525
SO-50 26 Sep 23:46:15 23:50:07 26° 53° (NE) 23:53:53 436.795
M-CUBED/EXP-1 PRIME 26 Sep 23:54:29 23:58:44 60° 254° (WSW) 00:02:41 437.505
BEESAT 3 26 Sep 23:56:15 23:58:57 18° 110° (ESE) 00:01:38 437.485
UKube-1 26 Sep 23:57:09 00:01:24 60° 75° (ENE) 00:05:41 .
DUCHIFAT 1 26 Sep 23:58:55 00:03:03 58° 100° (E) 00:07:11 145.980
QB50P1 26 Sep 23:59:44 00:03:56 71° 102° (ESE) 00:08:08 145.935-145.965
BUGSAT 1 27 Sep 00:06:32 00:09:53 25° 97° (E) 00:13:14 437.445
UNISAT 6 27 Sep 00:10:34 00:11:59 11° 294° (WNW) 00:13:25 437.425
POPSAT HIP 1 27 Sep 00:13:09 00:17:21 80° 284° (WNW) 00:21:34 437.405
JUGNU 27 Sep 00:13:31 00:16:41 15° 191° (S) 00:19:51 437.505
50 SAT 27 Sep 00:16:47 00:19:57 28° 262° (W) 00:23:09 437.505
Cosmos 2491 27 Sep 00:18:19 00:22:24 14° 64° (ENE) 00:26:28 435.465 / 435.565
DX 1 27 Sep 00:23:43 00:27:56 47° 260° (W) 00:32:10 434.975-435.025
ESTCUBE 1 27 Sep 00:26:08 00:28:39 15° 267° (W) 00:31:10 437.505/2401.250
VELOX 1 27 Sep 00:28:42 00:32:27 27° 263° (W) 00:36:13 145.980
RS-15 27 Sep 00:28:56 00:34:15 13° 353° (N) 00:39:36 29.354- 29.394
NANOSAT C BR1 27 Sep 00:30:23 00:34:27 50° 286° (WNW) 00:38:31 145.865
JAS-2 27 Sep 00:32:03 00:39:59 90° 105° (ESE) 00:47:26 435.910
CUBEBUG 1 27 Sep 00:36:51 00:39:43 17° 266° (W) 00:42:34 437.445
BEESAT 2 27 Sep 00:48:26 00:52:01 35° 114° (ESE) 00:55:40 435.950
Oscar 19 27 Sep 00:49:54 00:53:00 16° 93° (E) 00:56:03 437.125/150
QB50P2 27 Sep 00:53:19 00:56:44 24° 289° (WNW) 01:00:08 145.880/145.840
AUBIESAT-1 27 Sep 00:54:32 00:56:50 14° 260° (W) 00:59:04 437.475
POLYITAN 1 27 Sep 00:55:32 00:58:57 24° 289° (WNW) 01:02:21 437.675
ITUPSAT 1 27 Sep 00:59:25 01:01:05 12° 64° (ENE) 01:02:44 437.325
SRMSAT 27 Sep 01:07:00 01:11:00 19° 182° (S) 01:15:00 437.500
TISAT 1 27 Sep 01:09:39 01:13:51 88° 74° (ENE) 01:18:02 437.305
SWISSCUBE 27 Sep 01:11:20 01:14:35 19° 67° (ENE) 01:17:50 437.505
YUBILEINY 27 Sep 01:15:44 01:19:52 14° 78° (ENE) 01:23:59 435.215
BEESAT 27 Sep 01:23:57 01:27:37 23° 68° (ENE) 01:31:17 436.000
SPROUT 27 Sep 01:24:21 01:25:45 11° 268° (W) 01:27:08 437.525
SO-50 27 Sep 01:26:41 01:30:28 27° 249° (WSW) 01:34:12 436.795
BEESAT 3 27 Sep 01:32:56 01:36:21 29° 305° (NW) 01:39:48 437.485
Gurwin Techsat 1B 27 Sep 01:38:18 01:42:30 23° 95° (E) 01:46:40 435.225
BUGSAT 1 27 Sep 01:42:11 01:45:05 19° 290° (WNW) 01:47:58 437.445
Cosmos 2491 27 Sep 02:11:41 02:20:35 82° 83° (E) 02:29:24 435.465 / 435.565
JAS-2 27 Sep 02:19:09 02:23:49 17° 301° (WNW) 02:28:25 435.910
BEESAT 2 27 Sep 02:27:22 02:29:57 17° 309° (NW) 02:32:33 435.950
Oscar 19 27 Sep 02:27:34 02:32:32 49° 287° (WNW) 02:37:28 437.125/150
ITUPSAT 1 27 Sep 02:33:36 02:38:19 64° 259° (WSW) 02:43:03 437.325
Cosmos 2504 27 Sep 02:45:10 02:50:14 20° 84° (E) 02:55:09 435.465 / 435.565
RS-15 27 Sep 02:45:13 02:54:02 21° 31° (NNE) 03:02:46 29.354- 29.394
SWISSCUBE 27 Sep 02:47:37 02:52:02 38° 261° (W) 02:56:29 437.505
SRMSAT 27 Sep 02:56:36 02:59:27 14° 192° (SSW) 03:02:16 437.500
MOZHAYETS 4 27 Sep 02:58:34 03:02:41 35° 72° (ENE) 03:06:51
BEESAT 27 Sep 03:00:59 03:05:11 31° 262° (W) 03:09:24 436.000
AIST 2 27 Sep 03:02:08 03:05:48 33° 113° (ESE) 03:09:32 435.215
YUBILEINY 27 Sep 03:06:31 03:15:19 89° 102° (ESE) 03:24:09 435.215
PCSat 27 Sep 03:12:27 03:16:15 20° 105° (ESE) 03:20:05 145.827
Gurwin Techsat 1B 27 Sep 03:17:38 03:22:29 36° 289° (WNW) 03:27:18 435.225
ITAMSAT 1 27 Sep 03:18:18 03:23:28 60° 101° (ESE) 03:28:37 435.822/435.867
ISS 27 Sep 03:26:01 03:29:16 60° 41° (NE) 03:32:31 145.825
KKS-1 27 Sep 03:30:41 03:35:00 52° 74° (ENE) 03:39:20 437.445
AO-7 27 Sep 04:00:57 04:09:11 64° 104° (ESE) 04:17:23 29.400- 29.500
STARS 27 Sep 04:06:55 04:11:14 63° 75° (ENE) 04:15:34 437.465
Cosmos 2491 27 Sep 04:11:09 04:16:14 17° 281° (W) 04:21:18 435.465 / 435.565
CUBESAT XI-V 27 Sep 04:15:48 04:19:52 30° 71° (ENE) 04:23:58 437.345
Cosmos 2504 27 Sep 04:35:35 04:42:58 59° 279° (W) 04:50:05 435.465 / 435.565
MOZHAYETS 4 27 Sep 04:36:49 04:39:55 18° 266° (W) 04:43:03
CUSAT 1 27 Sep 04:40:50 04:45:07 16° 63° (ENE) 04:49:03 437.405
AIST 2 27 Sep 04:41:25 04:44:21 19° 309° (NW) 04:47:19 435.215
HORYU 2 27 Sep 04:46:18 04:49:28 19° 95° (E) 04:52:37 437.375
PCSat 27 Sep 04:54:04 04:59:14 46° 300° (WNW) 05:04:28 145.827
RS-15 27 Sep 04:57:09 05:09:31 67° 57° (ENE) 05:21:29 29.354- 29.394
ITAMSAT 1 27 Sep 04:59:34 05:02:23 15° 296° (WNW) 05:05:13 435.822/435.867
YUBILEINY 27 Sep 05:08:18 05:13:13 16° 294° (WNW) 05:18:10 435.215
KKS-1 27 Sep 05:10:23 05:11:49 11° 267° (W) 05:13:15 437.445
AIST 1 27 Sep 05:19:35 05:23:58 75° 277° (W) 05:28:21
AO-85 27 Sep 05:27:35 05:30:40 20° 51° (NE) 05:33:38 145.980
NOAA 18 27 Sep 05:46:46 05:49:33 14° 93° (E) 05:52:19 137.9125
CUBESAT XI-V 27 Sep 05:53:34 05:57:12 22° 265° (W) 06:00:53 437.345
AO-7 27 Sep 05:54:50 06:01:17 26° 301° (WNW) 06:07:46 29.400- 29.500
DANDE 27 Sep 06:00:16 06:07:38 33° 72° (ENE) 06:14:29 436.750
GOMX 1 27 Sep 06:01:21 06:05:02 27° 96° (E) 06:08:35 467.674
LilacSat-2 27 Sep 06:03:08 06:06:16 24° 96° (E) 06:09:24 437.200
BRITE-PL 27 Sep 06:07:08 06:11:56 89° 88° (E) 06:16:21 437.365/2234.400
CUSAT 1 27 Sep 06:20:36 06:28:19 86° 263° (W) 06:34:35 437.405
HORYU 2 27 Sep 06:22:04 06:26:02 32° 289° (WNW) 06:29:58 437.375
DOVE 4 27 Sep 06:27:17 06:30:22 20° 95° (E) 06:33:26 437.250
STRAND 1 27 Sep 06:34:45 06:39:31 42° 72° (ENE) 06:44:19 437.568
NOAA 15 27 Sep 06:37:14 06:42:33 75° 103° (ESE) 06:47:48 137.62
Cubesat XI-IV 27 Sep 06:50:21 06:55:44 81° 103° (ESE) 07:01:06 437.490
CUTE-I 27 Sep 06:50:47 06:56:09 83° 103° (ESE) 07:01:31 437.470
AO-85 27 Sep 07:07:39 07:11:04 27° 248° (WSW) 07:14:20 145.980
O/OREOS (USA 219) 27 Sep 07:08:01 07:12:33 88° 107° (ESE) 07:17:09 437.305
RS-15 27 Sep 07:10:52 07:21:04 32° 257° (WSW) 07:31:02 29.354- 29.394
NOAA 18 27 Sep 07:25:09 07:30:33 62° 287° (WNW) 07:35:56 137.9125
GONETS M04 27 Sep 07:30:31 07:37:44 29° 84° (E) 07:44:57
LilacSat-2 27 Sep 07:37:41 07:40:23 19° 290° (WNW) 07:43:05 437.200
PRISM 27 Sep 07:39:32 07:42:00 15° 68° (ENE) 07:44:29 437.425
GOMX 1 27 Sep 07:39:46 07:42:57 20° 292° (WNW) 07:46:02 467.674
DANDE 27 Sep 07:42:36 07:50:37 51° 269° (W) 07:57:56 436.750
CINEMA 3 27 Sep 07:44:12 07:48:07 38° 99° (E) 07:52:08 145.822/145.860
HO-68 27 Sep 07:47:17 07:53:53 39° 99° (E) 08:00:26 435.675
Cosmos 2499 27 Sep 07:49:51 07:55:47 28° 87° (E) 08:01:35 435.465 / 435.565
COMPASS 1 27 Sep 07:51:18 07:53:39 15° 93° (E) 07:55:59 437.405
DOVE 4 27 Sep 08:04:38 08:08:02 25° 289° (WNW) 08:11:25 437.250
CUSAT 1 27 Sep 08:06:10 08:08:46 12° 282° (WNW) 08:11:13 437.405
CUTE 1.7 + AOD 2 27 Sep 08:13:57 08:18:13 65° 100° (E) 08:22:29 437.475
CANX-2 27 Sep 08:15:01 08:19:20 80° 101° (E) 08:23:37 2200.000
STRAND 1 27 Sep 08:15:22 08:18:50 18° 266° (W) 08:22:19 437.568
SEEDS 27 Sep 08:16:55 08:21:02 46° 99° (E) 08:25:07 437.485
NOAA 15 27 Sep 08:19:40 08:21:36 12° 298° (WNW) 08:23:32 137.62
Cubesat XI-IV 27 Sep 08:33:28 08:35:03 11° 298° (WNW) 08:36:39 437.490
CUTE-I 27 Sep 08:34:02 08:35:27 11° 298° (WNW) 08:36:51 437.470
AAUSAT CUBESAT 2 27 Sep 08:41:41 08:45:44 46° 99° (E) 08:49:45 437.432
CUBEBUG 2 27 Sep 08:56:25 09:00:42 71° 101° (E) 09:05:07 437.445
FUNcube-1 27 Sep 09:05:41 09:09:36 32° 98° (E) 09:13:33 145.935
PRISM 27 Sep 09:13:09 09:16:58 36° 261° (W) 09:20:50 437.425
UWE-3 27 Sep 09:16:01 09:20:21 78° 101° (E) 09:24:48 435.000/436.395/437.385
CINEMA 3 27 Sep 09:22:44 09:24:56 14° 292° (WNW) 09:27:10 145.822/145.860
COMPASS 1 27 Sep 09:25:24 09:29:17 36° 287° (WNW) 09:33:09 437.405
GONETS M04 27 Sep 09:25:28 09:34:00 53° 281° (W) 09:42:37
UNISAT 6 27 Sep 09:27:13 09:30:58 31° 72° (ENE) 09:34:42 437.425
HO-68 27 Sep 09:35:07 09:41:25 35° 294° (WNW) 09:47:43 435.675
